Regional Weather Roundup
Issued by NWS Cleveland, OH

Home | Current Version | Previous Version | Graphics & Text | Print | Product List | Glossary Off
Versions: 1 2 3 4 5 6 7 8 9 10 11 12 13 14 15 16 17 18 19 20 21 22 23 24 25 26 27 28 29 30 31 32 33 34 35 36 37 38 39 40 41 42 43 44 45 46 47 48 49 50

000
ASUS41 KCLE 311000
RWRCLE
OHIO REGIONAL WEATHER ROUNDUP
NATIONAL WEATHER SERVICE WILMINGTON, OH
600 AM EDT SUN JUL 31 2016

NOTE: "FAIR" INDICATES FEW OR NO CLOUDS BELOW 12,000 FEET WITH NO
SIGNIFICANT WEATHER AND/OR OBSTRUCTIONS TO VISIBILITY.

OHZ001>008-015>018-024>027-034-035-043-044-311100-
   NORTHWEST OHIO

CITY           SKY/WX    TMP DP  RH WIND       PRES   REMARKS
DEFIANCE       CLOUDY    70  66  87 CALM      29.99R
FINDLAY        FOG       70  66  87 CALM      29.97R VSB 1/2
TOLEDO EXPRESS FAIR      66  66 100 N3        29.97R
TOLEDO EXEC    FAIR      67  67 100 NW5       29.97S
LIMA           FAIR      64  64 100 CALM      29.98R FOG
$$

OHZ009>014-019>023-028>033-038-089-311100-
   NORTHEAST OHIO

CITY           SKY/WX    TMP DP  RH WIND       PRES   REMARKS
CLE-HOPKINS    CLOUDY    70  66  87 S5        29.97S FOG
CLE-LAKEFRONT  FAIR      71  67  87 SE3       29.94S
CUY CO. ARPT   NOT AVBL
LORAIN-ELYRIA  MOCLDY    65  64  97 CALM      29.96S FOG
ASHTABULA      CLOUDY    66  66 100 CALM      29.99R
AKRON-CANTON   FOG       68  67  96 SW3       29.98R VSB 1/8
WOOSTER        NOT AVBL
MANSFIELD      FAIR      65  65 100 CALM      29.99R FOG
YOUNGSTOWN     FOG       68  67  96 E5        29.98R VSB 1/4
$$

OHZ042-051>053-060>062-070>072-077>081-311100-
  SOUTHWEST OHIO

CITY           SKY/WX    TMP DP  RH WIND       PRES   REMARKS
CINC-COVINGTON FAIR      70  69  97 W5        30.00R
CINC-LUNKEN    FAIR      70  70 100 SW3       29.99R
HAMILTON       FAIR      69  67  93 CALM      30.00R
DAYTON         NOT AVBL
WRIGHT-PAT AFB FAIR      68  68 100 CALM      29.98R
DAYTON GENERAL FAIR      68  65  90 S3        29.99R
WILMINGTON     FOG       69  69 100 SW5       29.99R VSB 1/2
$$

OHZ036-037-039>041-045>050-054>059-063>069-073>076-082>088-311100-
  CENTRAL AND SOUTHEAST OHIO

CITY           SKY/WX    TMP DP  RH WIND       PRES   REMARKS
COLUMBUS       FAIR      69  67  93 CALM      29.97R
OSU AIRPORT    FOG       66  66 100 CALM      29.98R VSB 1/4
BOLTON FIELD   NOT AVBL
RICKENBACK AFB NOT AVBL
NEWARK         FAIR      66  66 100 CALM      29.98R FOG
MARION         FOG       66  65  96 CALM      29.99R VSB 1/4
LANCASTER      FAIR      67  66  97 CALM      29.98R
ZANESVILLE     MOCLDY    68  65  90 CALM      29.98R FOG
NEW PHILLY     FOG       70  68  93 S3        29.98R VSB 1/4
$$



USA.gov is the U.S. government's official web portal to all federal, state and local government web resources and services.